Weather in Patiala

India     30°19′33″N   76°24′04″E
В апреле 2022 года жителям России запретили посещать сайт meteo.paraplan.net по решению Генеральной прокуратуры. Аудитория сайта уменьшилась в 10 раз. Владельцы сайта не видят смысла в поддержке погодного сервера в таких условиях. Сайт будет закрыт в октябре.
temp.,
°C
wind,
m/s
gust,
m/s
humid.,
%
clouds,
%
prec.,
mm/h
press.,
hPa
HPBL,
m
25 september, sun
sun2523:30+23e51488100 4.4 1002601
02:30+23ese91792100 3.0 1000710
05:30+22ese81496100 5.3 1001746
08:30+23sse61097100 6.1 1005636
11:30+25s458677 7.3 1007675
14:30+27wnw017642 1.5 1005741
17:30+26wnw22791 1.7 100577
20:30+23nnw11880 0.0 100713
26 september, mon
mon2623:30+23w01920 0.0 100811
02:30+22e22940 0.0 100724
05:30+22wnw11940 0.0 100712
08:30+25nnw22780 0.0 1009252
11:30+30nw34570 0.0 1009880
14:30+32nw56510 0.0 10061301
17:30+28nw47690 0.0 1005207
20:30+25nw36790 0.0 1006102
27 september, tue
tue2723:30+24nnw23810 0.0 100643
02:30+23wnw35830 0.0 1006106
05:30+23nnw34830 0.0 100669
08:30+26nnw23700 0.0 1008227
11:30+31wnw34530 0.0 10081092
14:30+33wnw45440 0.0 10051625
17:30+29wnw36620 0.0 1005124
20:30+26nnw22700 0.0 100626
28 september, wed
wed2823:30+25nw22730 0.0 100616
02:30+25nw22720 0.0 100515
05:30+24ne22760 0.0 100425
08:30+27nnw22660 0.0 1006201
11:30+32nw23480 0.0 10061082
14:30+34nw46400 0.0 10032498
17:30+30nnw36600 0.0 1003134
20:30+27nnw33650 0.0 100440
29 september, thu
thu2923:30+26n22690 0.0 100421
02:30+25nw22690 0.0 100417
05:30+25nw22700 0.0 100414
08:30+28nw12610 0.0 1006180
11:30+33nw34440 0.0 10061189
14:30+35nw56360 0.0 10032279
17:30+30nw37570 0.0 1003137
20:30+27nw33630 0.0 100537